[[{"header":{"parameterUnit":"m.s-1","parameterCategory":1,"la1":30.2991,"la2":30.254,"lo1":-89.0895,"lo2":-89.0444,"dy":0.0017,"dx":0.0017,"nx":28,"ny":28,"refTime":"2023-10-10T03:00:00:Z","depth":0,"parameterNumber":2,"parameterNumberName":"U-component_of_WINDS"},"data":[0,0,0,0,0,0,0,0,0,0,0,0,0,0,0,0,0,0,0,0,0,0,0,0,0,0,0,0,0,0,0,0,0,0,0,0,0,0,0,0,0,0,0,0,0,0,0,0,0,0,0,0,0,0,0,0,0,0,-6.0082,-6.0081,0,-6.0008,-6.0007,-6.0007,-5.9777,-5.9772,-5.9766,-5.9762,-5.9692,-5.9695,-5.9698,0,0,0,0,0,0,0,0,0,0,0,0,0,-6.003,-6.0032,-6.0082,-6.0081,-6.008,-6.0008,-6.0007,-6.0006,-5.9778,-5.9771,-5.9765,-5.9759,-5.9691,-5.9695,-5.9698,0,0,0,0,0,0,0,0,0,0,0,0,0,-6.0014,-6.0033,-6.0082,-5.9957,-5.9945,-6.0009,-6.0007,-6.0006,-5.9779,-5.9771,-5.9764,-5.9756,-5.969,-5.9694,-5.9699,-5.9879,0,0,-5.9712,-5.9714,0,0,0,0,0,0,0,0,-6.0016,-6.0017,-5.9976,-5.9966,-5.9952,-5.9894,-5.9963,-5.9964,-5.9781,-5.9842,-5.9761,-5.9753,-5.9766,-5.9764,-5.9767,-5.9876,-5.9873,-5.9712,-5.9715,-5.9717,-5.9718,0,0,0,0,0,0,0,-6.0017,-6.0018,-6.0053,-5.9976,-5.9962,-5.9907,-5.9896,-5.9962,-5.9848,-5.9836,-5.9819,-5.9814,-5.9758,-5.9763,-5.9763,-5.9872,-5.9712,-5.9716,-5.9719,-5.9721,-6.0126,-6.0134,0,0,0,0,0,0,-6.0035,-6.0021,-6.0055,-6.0051,-5.9966,-5.9914,-5.9902,-5.992,-5.9847,-5.9828,-5.982,-5.9803,-5.9759,-5.9759,-5.976,-5.9967,-5.9717,-5.9721,-5.9723,-6.0118,-6.0128,-6.0137,0,0,0,0,0,0,-6.0035,-6.004,-6.0058,-6.0031,-6.0029,-5.9923,-5.9946,-5.9923,-5.9928,-5.9834,-5.9813,-5.9846,-5.9753,-5.9754,-5.9851,-5.9962,-5.9723,-5.9727,-6.0109,-6.0121,-6.0133,-6.0383,0,0,0,0,0,0,-6.0034,-6.0041,-6.0108,-6.0034,-6.0031,-6.015,-5.9952,-5.9927,-5.9935,-5.9912,-5.9853,-5.9836,-5.9747,-5.9846,-5.9855,-5.9963,-5.973,-6.0098,-6.0114,-6.0129,-6.0365,-6.0403,-6.0435,0,0,0,0,0,-6.0033,-6.0182,-6.0112,-6.0118,-6.0112,-6.0156,-6.0155,-6.0048,-5.9945,-6.0012,-5.9952,-5.9838,-5.9948,-5.9858,-5.9866,-5.9978,-6.0091,-6.011,-6.0128,-6.0349,-6.0395,-6.0434,0,0,0,0,0,0,-6.0273,-6.017,-6.0091,-6.0221,-6.0199,-6.0117,-6.0198,-6.01,-6.0108,-6.0087,-5.9955,-5.9944,-6.0061,-6.0028,-5.9929,-6.0149,-6.0,-6.0022,-6.0166,-6.0209,-6.0244,-6.025,-5.9734,0,0,0,0,0,-6.0341,-6.0384,-6.0292,-6.0415,-6.0408,-6.0306,-6.0321,-6.024,-6.0213,-6.0203,-6.015,-6.013,-6.0159,-6.0182,-6.0204,-6.0358,-6.0343,-6.0439,-6.0474,-6.0504,-6.0524,-6.0605,-6.0647,-6.0197,-6.0197,-6.0197,0,0,-6.0482,-6.0431,-6.0466,-6.0462,-6.0435,-6.0485,-6.0299,-6.0359,-6.0395,-6.0213,-6.0301,-6.0262,-6.0231,-6.0358,-6.0411,-6.0334,-6.0645,-6.0527,-6.0551,-6.0556,-6.0629,-6.0671,-6.0709,-6.021,-6.0207,-6.0205,0,0,-6.0764,-6.0729,-6.0828,-6.0805,-6.0767,-6.0697,-6.0722,-6.0655,-6.0622,-6.0707,-6.0572,-6.0614,-6.0667,-6.0651,-6.065,-6.0927,-6.0824,-6.0938,-6.1123,-6.1203,-6.1239,-6.127,-6.1371,-6.1408,-6.0958,-6.0959,-6.0959,0,-6.0945,-6.1012,-6.0892,-6.0961,-6.0964,-6.0799,-6.09,-6.0884,-6.0856,-6.0863,-6.0777,-6.0841,-6.0808,-6.093,-6.0998,-6.1002,-6.1027,-6.0945,-6.1243,-6.1273,-6.13,-6.1395,-6.1433,-6.0973,-6.0971,-6.097,-6.0969,0,-6.1237,-6.1286,-6.1371,-6.1346,-6.1359,-6.1444,-6.1339,-6.1366,-6.1285,-6.1226,-6.1317,-6.1271,-6.1282,-6.1304,-6.1226,-6.1416,-6.137,-6.1266,-6.1114,-6.1359,-6.1446,-6.1481,-6.0994,-6.0988,-6.0984,-6.0981,0,0,-6.167,-6.1577,-6.1611,-6.1598,-6.1543,-6.158,-6.1658,-6.1667,-6.1694,-6.168,-6.1744,-6.1793,-6.1696,-6.1696,-6.1614,-6.1685,-6.191,-6.1571,-6.1568,-6.1637,-6.2119,-6.2199,-6.2243,-6.184,-6.1846,-6.1851,-6.2122,0,-6.1939,-6.2065,-6.1959,-6.2106,-6.2151,-6.1995,-6.2063,-6.2039,-6.1986,-6.2018,-6.1959,-6.1997,-6.1865,-6.1864,-6.1927,-6.1869,-6.2005,-6.1848,-6.1901,-6.1904,-6.1915,-6.2288,-6.2373,-6.263,-6.2155,-6.2161,-6.2165,0,-6.2269,-6.2269,-6.2421,-6.2357,-6.2372,-6.2435,-6.2435,-6.2466,-6.2436,-6.2393,-6.2392,-6.2292,-6.2366,-6.2217,-6.2319,-6.2215,-6.223,-6.2205,-6.2212,-6.2215,-6.2051,-6.2303,-6.271,-6.275,-6.2217,-6.2212,-6.2209,0,-6.2573,-6.261,-6.2705,-6.2699,-6.2627,-6.2675,-6.2648,-6.2609,-6.2622,-6.2623,-6.263,-6.264,-6.2647,-6.2658,-6.2564,-6.2464,-6.268,-6.2522,-6.2648,-6.2651,-6.2702,-6.2701,-6.312,-6.271,-6.2709,-6.2708,-6.2707,0,-6.2885,-6.2984,-6.284,-6.29,-6.3007,-6.2885,-6.2996,-6.2952,-6.292,-6.2969,-6.2835,-6.2885,-6.2756,-6.2794,-6.2721,-6.2818,-6.2822,-6.2791,-6.277,-6.2804,-6.2808,-6.2813,-6.2794,-6.2718,-6.2716,-6.2714,-6.2712,0,-6.3243,-6.315,-6.3244,-6.3167,-6.315,-6.3233,-6.3168,-6.3221,-6.3159,-6.3224,-6.3232,-6.3135,-6.3172,-6.3079,-6.3103,-6.3053,-6.3194,-6.3144,-6.3204,-6.319,-6.3322,-6.3312,-6.3761,-6.3815,-6.3369,-6.3373,-6.3377,0,-6.3449,-6.3521,-6.3452,-6.3475,-6.3454,-6.3492,-6.3504,-6.3387,-6.3406,-6.3377,-6.3434,-6.3459,-6.3474,-6.3541,-6.3474,-6.3492,-6.3443,-6.3599,-6.3445,-6.3477,-6.3448,-6.3446,-6.3454,-6.3632,-6.3638,-6.3642,-6.3645,0,-6.3826,-6.3777,-6.3797,-6.3803,-6.382,-6.3819,-6.3809,-6.3836,-6.3712,-6.3739,-6.3774,-6.3785,-6.3809,-6.3837,-6.384,-6.3813,-6.3712,-6.3694,-6.3725,-6.3761,-6.3794,-6.378,-6.3293,-6.3685,-6.3681,-6.3678,-6.3676,-6.3674,-6.4116,-6.4173,-6.4134,-6.4162,-6.4141,-6.4135,-6.4181,-6.4124,-6.4151,-6.4159,-6.4089,-6.4141,-6.4109,-6.4102,-6.4087,-6.4127,-6.4056,-6.41,-6.4111,-6.4125,-6.4148,-6.3786,-6.4127,-6.4126,-6.4124,-6.4123,-6.4122,0,-6.4488,-6.4454,-6.4481,-6.447,-6.4493,-6.4391,-6.4375,-6.4402,-6.4447,-6.4426,-6.4442,-6.4484,-6.4511,-6.4446,-6.4464,-6.4508,-6.4462,-6.4517,-6.4514,-6.451,-6.4209,-6.4181,-6.4555,-6.4555,-6.4555,-6.4554,-6.4554,-6.4554,-6.4684,-6.4777,-6.4723,-6.4805,-6.477,-6.4818,-6.4818,-6.4812,-6.4795,-6.4847,-6.4867,-6.4824,-6.4786,-6.48,-6.4821,-6.4801,-6.4815,-6.4888,-6.4853,-6.4573,-6.4531,-6.4491,-6.4465,-6.4891,-6.4892,-6.5151,-6.5153,-6.5155]},{"header":{"parameterUnit":"m.s-1","parameterCategory":1,"la1":30.2991,"la2":30.254,"lo1":-89.0895,"lo2":-89.0444,"dy":0.0017,"dx":0.0017,"nx":28,"ny":28,"refTime":"2023-10-10T03:00:00:Z","depth":0,"parameterNumber":3,"parameterNumberName":"V-component_of_WINDS"},"data":[0,0,0,0,0,0,0,0,0,0,0,0,0,0,0,0,0,0,0,0,0,0,0,0,0,0,0,0,0,0,0,0,0,0,0,0,0,0,0,0,0,0,0,0,0,0,0,0,0,0,0,0,0,0,0,0,0,0,-4.4579,-4.4578,0,-4.4484,-4.4483,-4.4482,-4.4393,-4.4392,-4.439,-4.4389,-4.4289,-4.4288,-4.4286,0,0,0,0,0,0,0,0,0,0,0,0,0,-4.4681,-4.468,-4.458,-4.4578,-4.4577,-4.4484,-4.4483,-4.4481,-4.4393,-4.4391,-4.439,-4.4389,-4.429,-4.4288,-4.4286,0,0,0,0,0,0,0,0,0,0,0,0,0,-4.4616,-4.4679,-4.458,-4.4522,-4.4516,-4.4484,-4.4483,-4.4481,-4.4393,-4.4391,-4.439,-4.4388,-4.429,-4.4288,-4.4286,-4.4303,0,0,-4.4278,-4.4277,0,0,0,0,0,0,0,0,-4.462,-4.4613,-4.4531,-4.4526,-4.4519,-4.4449,-4.4482,-4.4421,-4.4393,-4.444,-4.4389,-4.4387,-4.4343,-4.4336,-4.4322,-4.4298,-4.4294,-4.4278,-4.4276,-4.4275,-4.4275,0,0,0,0,0,0,0,-4.4625,-4.4616,-4.4542,-4.453,-4.4523,-4.4499,-4.4488,-4.447,-4.4402,-4.4435,-4.4429,-4.4419,-4.434,-4.4325,-4.4319,-4.4293,-4.4278,-4.4276,-4.4274,-4.4273,-4.4274,-4.4275,0,0,0,0,0,0,-4.4639,-4.4621,-4.4545,-4.4539,-4.4567,-4.4499,-4.4486,-4.4473,-4.4402,-4.4389,-4.442,-4.4415,-4.433,-4.4322,-4.4315,-4.4328,-4.4275,-4.4273,-4.4271,-4.4273,-4.4274,-4.4276,0,0,0,0,0,0,-4.4641,-4.4633,-4.4548,-4.4578,-4.4565,-4.4499,-4.4484,-4.4472,-4.4457,-4.439,-4.4377,-4.4418,-4.4328,-4.4319,-4.4306,-4.4323,-4.4272,-4.427,-4.4271,-4.4273,-4.4275,-4.4355,0,0,0,0,0,0,-4.4645,-4.4634,-4.4641,-4.4579,-4.4564,-4.4542,-4.4485,-4.4471,-4.4453,-4.4445,-4.4385,-4.4373,-4.4326,-4.431,-4.4304,-4.4319,-4.4268,-4.4269,-4.4272,-4.4274,-4.4351,-4.436,-4.4368,0,0,0,0,0,-4.4648,-4.4668,-4.4642,-4.4633,-4.4572,-4.4544,-4.4535,-4.4482,-4.4455,-4.446,-4.4417,-4.4375,-4.4323,-4.431,-4.4301,-4.4316,-4.4268,-4.4271,-4.4274,-4.4347,-4.4358,-4.4368,0,0,0,0,0,0,-4.4734,-4.4659,-4.4629,-4.463,-4.4594,-4.4529,-4.4534,-4.4496,-4.4466,-4.446,-4.4394,-4.4381,-4.4375,-4.4345,-4.4331,-4.4327,-4.4289,-4.4291,-4.4347,-4.4357,-4.4366,-4.4372,-4.4266,0,0,0,0,0,-4.4753,-4.4738,-4.4672,-4.4679,-4.4662,-4.4602,-4.4588,-4.4549,-4.4509,-4.4493,-4.4449,-4.4411,-4.4385,-4.437,-4.4343,-4.4347,-4.433,-4.4352,-4.4361,-4.4368,-4.437,-4.4365,-4.4373,-4.4287,-4.4287,-4.4287,0,0,-4.4792,-4.4749,-4.4743,-4.4695,-4.4663,-4.4646,-4.4589,-4.4575,-4.4562,-4.4491,-4.4475,-4.4442,-4.4394,-4.4389,-4.4384,-4.4363,-4.439,-4.4373,-4.4379,-4.4376,-4.437,-4.4378,-4.4385,-4.4289,-4.4289,-4.4289,0,0,-4.4854,-4.4821,-4.4821,-4.479,-4.4742,-4.4701,-4.4701,-4.4641,-4.4616,-4.46,-4.4545,-4.4528,-4.4486,-4.4454,-4.4432,-4.4479,-4.4437,-4.4472,-4.4516,-4.4512,-4.4519,-4.4525,-4.4538,-4.4544,-4.4475,-4.4475,-4.4475,0,-4.4908,-4.4882,-4.4826,-4.4814,-4.4793,-4.4729,-4.4726,-4.4699,-4.4644,-4.463,-4.4608,-4.4552,-4.4516,-4.45,-4.4511,-4.4497,-4.4492,-4.4478,-4.4523,-4.4528,-4.4532,-4.4544,-4.455,-4.4479,-4.4479,-4.4478,-4.4478,0,-4.4949,-4.4932,-4.4938,-4.4886,-4.4866,-4.486,-4.48,-4.4786,-4.475,-4.4711,-4.4693,-4.4647,-4.4608,-4.4602,-4.4567,-4.458,-4.4568,-4.4536,-4.4495,-4.4546,-4.4556,-4.456,-4.4485,-4.4484,-4.4482,-4.4481,0,0,-4.5062,-4.4979,-4.4981,-4.4956,-4.4897,-4.4882,-4.4871,-4.4833,-4.4821,-4.4785,-4.4772,-4.4738,-4.4706,-4.4682,-4.4641,-4.4639,-4.4674,-4.4606,-4.4603,-4.4617,-4.4682,-4.4705,-4.4711,-4.4648,-4.4648,-4.4649,-4.4685,0,-4.5111,-4.5089,-4.5037,-4.503,-4.5012,-4.4949,-4.4939,-4.4901,-4.4864,-4.4842,-4.48,-4.4775,-4.4738,-4.4722,-4.4716,-4.4671,-4.4686,-4.4668,-4.4632,-4.4631,-4.4643,-4.4717,-4.4742,-4.4778,-4.4689,-4.4689,-4.469,0,-4.5166,-4.5133,-4.5125,-4.5064,-4.5055,-4.5047,-4.5006,-4.4987,-4.4941,-4.4914,-4.4886,-4.4841,-4.4823,-4.4788,-4.4761,-4.475,-4.4732,-4.4708,-4.4708,-4.47,-4.4662,-4.4708,-4.4789,-4.4793,-4.4696,-4.4696,-4.4695,0,-4.5245,-4.5199,-4.5187,-4.5168,-4.5098,-4.5093,-4.5064,-4.5017,-4.4996,-4.4961,-4.4946,-4.4909,-4.4888,-4.486,-4.4805,-4.4785,-4.4783,-4.4744,-4.4757,-4.4758,-4.4758,-4.4758,-4.4833,-4.4752,-4.4751,-4.4751,-4.4751,0,-4.5304,-4.53,-4.5221,-4.5213,-4.5206,-4.5146,-4.514,-4.5105,-4.5063,-4.5045,-4.499,-4.4974,-4.4905,-4.488,-4.4838,-4.482,-4.4811,-4.4787,-4.4775,-4.479,-4.4793,-4.4776,-4.477,-4.4753,-4.4752,-4.4752,-4.4752,0,-4.539,-4.5337,-4.5319,-4.5255,-4.5238,-4.5235,-4.5179,-4.5168,-4.5127,-4.5105,-4.5097,-4.5032,-4.5,-4.4944,-4.4896,-4.4867,-4.4856,-4.4838,-4.4872,-4.4864,-4.4879,-4.4877,-4.4943,-4.4947,-4.4867,-4.4868,-4.4868,0,-4.5429,-4.5425,-4.5359,-4.5344,-4.5317,-4.5293,-4.5271,-4.5212,-4.5192,-4.5138,-4.5132,-4.5096,-4.5064,-4.5015,-4.4963,-4.4925,-4.4903,-4.4929,-4.4897,-4.4911,-4.4899,-4.4899,-4.4897,-4.4936,-4.4937,-4.4938,-4.4939,0,-4.5504,-4.5478,-4.545,-4.5413,-4.5389,-4.5356,-4.5321,-4.5311,-4.5242,-4.5222,-4.5189,-4.5164,-4.5114,-4.5078,-4.5032,-4.4999,-4.4956,-4.4949,-4.495,-4.4964,-4.4982,-4.4969,-4.4888,-4.4948,-4.4947,-4.4946,-4.4946,-4.4945,-4.5566,-4.5557,-4.551,-4.5479,-4.5446,-4.5414,-4.5399,-4.5357,-4.5328,-4.5284,-4.525,-4.5218,-4.5169,-4.5104,-4.5073,-4.5046,-4.5026,-4.5028,-4.5028,-4.5028,-4.5033,-4.4989,-4.5038,-4.5037,-4.5037,-4.5037,-4.5036,0,-4.5635,-4.5601,-4.5574,-4.5525,-4.5501,-4.5465,-4.5423,-4.5404,-4.5377,-4.5336,-4.5305,-4.5265,-4.5229,-4.5174,-4.5132,-4.5121,-4.51,-4.5112,-4.511,-4.5103,-4.5054,-4.5056,-4.5129,-4.5129,-4.5129,-4.5129,-4.5129,-4.5129,-4.5667,-4.5651,-4.5619,-4.5584,-4.5549,-4.5519,-4.5497,-4.5466,-4.5432,-4.5391,-4.536,-4.5325,-4.5277,-4.5231,-4.5195,-4.5179,-4.5165,-4.5182,-4.516,-4.5115,-4.5107,-4.5098,-4.51,-4.5181,-4.5181,-4.521,-4.5211,-4.5211]}]]